Погода в Воегурте

Россия / Удмуртская Республика     57°52′58″N   53°04′47″E
темп.,
°C
ветер,
м/с
пор.,
м/с
влажн.,
%
обл.,
%
осадки,
мм/ч
давл.,
гПа
погр.,
м
12 мая, ср
ср1201:00+13всв23875 0.0 102945
04:00+11всв228845 0.0 103030
07:00+14в247221 0.0 1030196
10:00+20в22520 0.0 1030704
13:00+23в01401 0.0 10291451
16:00+24зсз22370 0.0 10281651
19:00+21ссв22485 0.0 102726
22:00+17в11535 0.0 102811
13 мая, чт
чт1301:00+15в11614 0.0 102811
04:00+14вюв11670 0.0 102810
07:00+17в11610 0.0 1028119
10:00+23ююв22470 0.0 1028739
13:00+26ю23354 0.0 10262440
16:00+27ю34317 0.0 10252692
19:00+23ююз34477 0.0 102581
22:00+18ююз3451100 0.0 102559
14 мая, пт
пт1401:00+17ю2356100 0.0 102535
04:00+16ююв235870 0.0 102539
07:00+18ю3765100 0.1 1025205
10:00+23ююз574549 0.3 1024833
13:00+26ююз610305 0.0 10222070
16:00+27юз610335 0.0 10212694
19:00+23юз3653100 0.0 1020141
22:00+18ююз3768100 0.0 1021110
15 мая, сб
сб1501:00+16ююз397176 0.0 1020170
04:00+15ююз387610 0.0 1021133
07:00+18юз486554 0.0 1020279
10:00+24юз58455 0.0 1019803
13:00+27юз71033100 0.0 10181682
16:00+27юз6113399 0.0 10181857
19:00+24юз494864 0.0 1017317
22:00+18ююз3116174 0.0 1018191
16 мая, вс
вс1601:00+16ююз3965100 0.0 1018170
04:00+14ююз376833 0.0 1018103
07:00+18ююз49578 0.0 1018260
10:00+25ююз583825 0.0 1017704
13:00+28юз7102687 0.0 10162549
16:00+29юз6112938 0.0 10143338
19:00+24юз51245100 0.0 1014563
22:00+20ююз6155530 0.0 1013426